This is the latest recevied weather packets stored in our database for station/object WE8L. If no packets are shown the sender has not sent any weather packets the latest 1 day(s).
| Time | Temp. | Humidity | Pressure | Rain* | Wind** | Luminosity | Snow |
|---|---|---|---|---|---|---|---|
| 1778063276 | 6.67° C | 99% | 1012.2 hPa | 0 mm | - | 0 W/m² | - |
| 1778062974 | 6.11° C | 99% | 1012.5 hPa | 0 mm | - | 0 W/m² | - |
| 1778062671 | 6.11° C | 99% | 1012.5 hPa | 0 mm | - | 0 W/m² | - |
| 1778062367 | 6.11° C | 99% | 1011.8 hPa | 0 mm | - | 0 W/m² | - |
| 1778062065 | 6.11° C | 99% | 1011.7 hPa | 0 mm | - | 0 W/m² | - |
| 1778061763 | 6.11° C | 99% | 1011.1 hPa | 0 mm | - | 0 W/m² | - |
| 1778061158 | 6.11° C | 99% | 1011.7 hPa | 0 mm | - | 0 W/m² | - |
| 1778060553 | 6.11° C | 99% | 1011.5 hPa | 0 mm | - | 0 W/m² | - |
| 1778059948 | 6.11° C | 99% | 1011.4 hPa | 0 mm | - | 0 W/m² | - |
| 1778059646 | 6.11° C | 99% | 1011.5 hPa | 0 mm | - | 0 W/m² | - |
| 1778059343 | 6.11° C | 99% | 1011.5 hPa | 0 mm | - | 0 W/m² | - |
| 1778058738 | 6.11° C | 99% | 1011 hPa | 0 mm | - | 0 W/m² | - |
| 1778058132 | 6.11° C | 99% | 1010.9 hPa | 0 mm | - | 0 W/m² | - |
| 1778057222 | 6.11° C | 99% | 1010.9 hPa | 0 mm | - | 0 W/m² | - |
| 1778056616 | 6.11° C | 99% | 1011.1 hPa | 0 mm | - | 0 W/m² | - |
| 1778056314 | 6.11° C | 99% | 1011 hPa | 0 mm | - | 0 W/m² | - |
| 1778055409 | 6.67° C | 99% | 1010.8 hPa | 0 mm | - | 0 W/m² | - |
| 1778054804 | 6.67° C | 99% | 1010.4 hPa | 0 mm | - | 0 W/m² | - |
| 1778054500 | 6.67° C | 99% | 1010.7 hPa | 1.78 mm | - | 0 W/m² | - |
| 1778053593 | 7.22° C | 99% | 1010.5 hPa | 1.27 mm | - | 0 W/m² | - |
| 1778052987 | 7.22° C | 99% | 1010.5 hPa | 1.78 mm | - | 0 W/m² | - |
| 1778052381 | 7.78° C | 99% | 1010.8 hPa | 1.27 mm | - | 0 W/m² | - |
| 1778051777 | 8.33° C | 99% | 1010.4 hPa | 3.05 mm | - | 0 W/m² | - |
| 1778051474 | 8.33° C | 99% | 1010.6 hPa | 3.05 mm | - | 0 W/m² | - |
| 1778051171 | 8.33° C | 99% | 1010.4 hPa | 4.83 mm | - | 0 W/m² | - |
* Rain latest hour (hover to see other rain measurements)
** Current wind speed in m/s (hover to see current wind gust speed)